Location: Caltech
(34.1382°N, 118.1253°W)
Time: 12:18:39
(UTC-07:00)

OPAL - Visible Passes

Search period start: 24 May 2015 00:00
Search period end: 03 June 2015 00:00
Orbit: 744 x 795 km, 100.2° (Epoch: 24 May)

Date Brightness Start Highest point End Pass type
(mag) Time Alt. Az. Time Alt. Az. Time Alt. Az.
24 May 8.3 21:25:44 10° N 21:30:49 55° WNW 21:35:49 10° SSW visible
25 May 7.5 20:50:21 10° NNE 20:55:31 65° ESE 21:00:37 10° S visible
25 May 10.4 22:31:14 10° NNW 22:33:55 14° WNW 22:36:18 10° W visible
26 May 8.5 20:15:40 10° NE 20:20:01 28° E 20:24:24 10° SSE visible
26 May 9.4 21:54:21 10° N 21:58:53 30° WNW 22:03:16 10° SW visible
27 May 7.9 21:18:32 10° N 21:23:42 68° WNW 21:28:47 10° SSW visible
28 May 7.7 20:43:19 10° NNE 20:48:21 51° ESE 20:53:20 10° S visible
28 May 10.2 22:23:30 10° NNW 22:26:51 17° WNW 22:29:58 10° WSW visible
29 May 9.0 21:47:01 10° N 21:51:47 37° WNW 21:56:25 10° SW visible
30 May 7.6 21:11:22 10° NNE 21:16:35 85° WNW 21:21:41 10° SSW visible
31 May 8.0 20:36:20 10° NNE 20:41:10 41° E 20:45:58 10° S visible
31 May 10.0 22:15:57 10° NNW 22:19:48 21° WNW 22:23:27 10° WSW visible
01 Jun 8.6 21:39:45 10° N 21:44:41 46° WNW 21:49:30 10° SW visible
02 Jun 7.4 21:04:15 10° NNE 21:09:25 77° ESE 21:14:30 10° S visible
02 Jun 10.5 22:46:00 10° NW 22:47:44 11° WNW 22:49:08 10° WNW visible
